Location: F?ge?el
(45.8833°N, 22.5833°E)
Time: 05:49:46
(UTC+00:00)

SL-16 R/B - Pass Details

Date: 17 November 2025
Orbit: 985 x 1006 km, 99.8° (Epoch: 04 December)

Event Time Altitude Azimuth Distance (km) Brightness Sun altitude
Rises 16:13:30 0° 9° (N) 3,746 5.3 -13.4°
Reaches altitude 10° 16:16:09 10° 2° (N) 2,792 4.7 -13.9°
Maximum altitude 16:21:50 38° 297° (WNW) 1,499 3.9 -14.8°
Drops below altitude 10° 16:27:28 10° 232° (SW) 2,769 5.9 -15.8°
Sets 16:30:06 0° 225° (SW) 3,712 6.5 -16.2°
